Location: Mizzole
(45.4833°N, 11.0500°E)
Time: 02:07:27
(UTC+00:00)

CZ-4 R/B - Pass Details

Date: 21 October 2019
Orbit: 530 x 601 km, 97.8° (Epoch: 14 November)

Event Time Altitude Azimuth Distance (km) Brightness Sun altitude
Rises 18:18:39 0° 195° (SSW) 2,809 5.0 -21.3°
Reaches altitude 10° 18:21:05 10° 208° (SSW) 1,922 4.3 -21.8°
Maximum altitude 18:24:36 26° 265° (W) 1,191 3.7 -22.4°
Drops below altitude 10° 18:28:11 10° 323° (NW) 1,951 4.7 -23.0°
Sets 18:30:40 0° 336° (NNW) 2,861 5.4 -23.4°
